Weather in Cuenca

Spain     40°04′11″N   2°08′15″W
temp.,
°C
wind,
m/s
gust,
m/s
humid.,
%
clouds,
%
prec.,
mm/h
press.,
hPa
HPBL,
m
19 april, mon
mon1923:00+8wnw225479 0.0 102111
02:00+6ne1154100 0.0 102010
05:00+6ese115389 0.0 102010
08:00+5ene1155100 0.0 101910
11:00+11w3447100 0.0 1018522
14:00+15w5538100 0.0 10161564
17:00+15w5537100 0.0 10141872
20:00+13wnw354898 0.0 1014146
20 april, tue
tue2023:00+10w496692 0.0 1016319
02:00+9e117596 0.1 101519
05:00+9nnw1173100 0.0 101411
08:00+8nne017898 0.0 101410
11:00+13wsw345884 0.7 1014760
14:00+15w344814 2.1 10121496
17:00+15w4450100 0.6 10111492
20:00+13wsw3562100 1.3 1011171
21 april, wed
wed2123:00+10n117595 1.2 101312
02:00+9ese248690 2.4 1013157
05:00+7se229296 0.3 101318
08:00+7se1192100 0.3 101332
11:00+11ssw347296 0.3 1013503
14:00+14sw5659100 1.6 10121261
17:00+16sw354694 0.9 10091909
20:00+13wsw61062100 1.1 1010415
22 april, thu
thu2223:00+9wsw3790100 1.2 1013491
02:00+9ssw4887100 1.9 1013587
05:00+9sw278890 0.1 1012624
08:00+8wsw2790100 0.2 1013873
11:00+11w477374 0.3 10131005
14:00+13w565787 0.8 10121588
17:00+15w5651100 0.4 10111504
20:00+13wnw246587 0.6 1012168
23 april, fri
fri2323:00+11e1167100 0.0 101413
02:00+7se348726 0.0 101683
05:00+8ese4992100 0.0 1014348
08:00+9se51193100 0.1 1014576
11:00+10se61092100 0.3 1016498
14:00+10se81190100 1.1 1016693
17:00+10se5990100 0.5 1015573
20:00+10se71390100 0.6 1015677